Location: Gairloch Mountain Observatory
(46.1383°N, 60.9640°W)
Time: 01:07:21
(UTC-03:00)

CENTAUR R/B - Visible Passes

Search period start: 17 October 2017 00:00
Search period end: 27 October 2017 00:00
Orbit: 824 x 1365 km, 63.5° (Epoch: 10 September)

Date Brightness Start Highest point End Pass type
(mag) Time Alt. Az. Time Alt. Az. Time Alt. Az.
17 Oct 5.3 01:49:10 11° NE 01:49:10 11° NE 01:49:26 10° NE visible
17 Oct 3.9 03:36:21 35° NNE 03:36:21 35° NNE 03:40:42 10° NE visible
17 Oct 4.1 05:23:31 19° NW 05:26:10 23° NNW 05:31:55 10° NE visible
18 Oct 4.5 02:49:42 24° NE 02:49:42 24° NE 02:52:24 10° NE visible
18 Oct 3.9 04:36:53 27° NNW 04:37:12 27° NNW 04:43:21 10° NNE visible
18 Oct 4.6 06:25:25 10° NW 06:30:33 20° N 06:36:05 10° NE visible
19 Oct 5.1 02:03:03 14° NE 02:03:03 14° NE 02:04:01 10° NE visible
19 Oct 4.0 03:50:14 30° N 03:50:14 30° N 03:54:58 10° NNE visible
19 Oct 4.5 05:37:25 13° NW 05:41:24 20° N 05:46:51 10° NE visible
20 Oct 4.5 03:03:34 25° NNE 03:03:34 25° NNE 03:06:38 10° NE visible
20 Oct 4.2 04:50:45 21° NNW 04:52:18 22° NNW 04:57:58 10° NE visible
20 Oct 4.6 06:40:12 10° NW 06:45:48 23° NNE 06:51:50 10° ENE visible
21 Oct 5.0 02:16:53 17° NE 02:16:53 17° NE 02:18:20 10° NE visible
21 Oct 4.2 04:04:04 26° NNW 04:04:04 26° NNW 04:09:21 10° NNE visible
21 Oct 4.6 05:51:29 10° NW 05:56:41 21° N 06:02:17 10° NE visible
22 Oct 4.5 03:17:23 24° N 03:17:23 24° N 03:20:55 10° NNE visible
22 Oct 4.5 05:04:34 16° NNW 05:07:33 20° N 05:13:00 10° NE visible
22 Oct 4.5 06:54:39 10° NNW 07:00:55 28° NNE 07:07:43 10° E visible
23 Oct 4.9 02:30:42 18° NNE 02:30:42 18° NNE 02:32:35 10° NNE visible
23 Oct 4.4 04:17:52 21° NNW 04:18:25 22° N 04:24:01 10° NE visible
23 Oct 4.6 06:06:12 10° NW 06:11:56 23° NNE 06:18:05 10° ENE visible
24 Oct 5.4 01:44:00 11° NE 01:44:00 11° NE 01:44:17 10° NE visible
24 Oct 4.5 03:31:11 23° N 03:31:11 23° N 03:35:20 10° NNE visible
24 Oct 4.7 05:18:22 12° NW 05:22:49 21° N 05:28:30 10° NE visible
25 Oct 4.9 02:44:29 19° NNE 02:44:29 19° NNE 02:46:52 10° NNE visible
25 Oct 4.5 04:31:40 18° NNW 04:33:41 20° N 04:39:09 10° NE visible
25 Oct 4.5 06:20:36 10° NNW 06:27:00 29° NNE 06:33:58 10° E visible
26 Oct 5.3 01:57:48 13° NNE 01:57:48 13° NNE 01:58:32 10° NNE visible
26 Oct 4.6 03:44:59 21° N 03:44:59 21° N 03:50:06 10° NE visible
26 Oct 4.6 05:32:12 10° NW 05:38:02 24° NNE 05:44:21 10° ENE visible
